Location: Newark
(25.3833°N, 97.4000°E)
Time: 22:21:24
(UTC+00:00)

First-Move - Pass Details

Date: 28 February 2020
Orbit: 576 x 669 km, 97.6° (Epoch: 06 April)

Event Time Altitude Azimuth Distance (km) Brightness Sun altitude
Rises 22:49:42 0° 24° (NNE) 2,989 ? -15.4°
Reaches altitude 10° 22:52:09 10° 34° (NE) 2,064 ? -14.8°
Maximum altitude 22:56:12 33° 98° (E) 1,094 ? -13.9°
Drops below altitude 10° 23:00:08 10° 162° (SSE) 2,010 ? -13.0°
Sets 23:02:28 0° 172° (S) 2,898 ? -12.5°
